#timestamp,LO_Frequency,Hit,StdDev 
1594738815.9,286046997.3,N
1594738835.7,286046995.1,N
1594738855.6,286046996.2,N
1594738875.4,286046995.3,N
1594738895.2,286046995.5,N
1594738915.1,286046994.1,N
1594738916.0,286046994.1,N
1594738935.8,286046991.8,Y
1594738955.7,286046997.7,P
1594738975.5,286047001.2,P
1594738995.3,286046999.2,N
1594739015.2,286046998.0,N
1594739035.9,286046997.4,N
1594739055.7,286046997.6,N
1594739075.6,286046996.9,N
1594739095.4,286046997.5,N
1594739115.2,286046997.7,N
1594739135.1,286046997.8,N
1594739136.0,286046997.8,N
1594739155.8,286046997.0,N
1594739175.7,286046996.5,Y
1594739195.5,286046998.6,P
1594739215.3,286046998.7,P
1594739235.2,286046997.3,P
1594739255.0,286046999.6,N
1594739255.9,286046999.6,N
1594739275.8,286046997.1,Y
1594739295.6,286046998.8,P
1594739315.4,286046997.0,P
1594739335.3,286046999.2,N
1594739355.1,286046998.3,N
1594739375.8,286047000.8,N
1594739395.7,286047000.6,N
1594739415.5,286047000.1,N
1594739435.4,286047000.3,N
1594739455.2,286047000.4,N
1594739475.0,286047000.2,N
1594739475.9,286047000.2,N
1594739495.8,286047000.3,N
1594739515.6,286046999.7,N
1594739535.4,286047000.0,N
1594739555.3,286046999.8,N
1594739575.1,286046999.8,N
1594739595.9,286046999.7,N
1594739615.7,286047000.5,N
1594739635.5,286047000.5,N
1594739655.4,286047001.0,N
1594739675.2,286047000.9,N
1594739695.0,286047000.2,N
1594739695.9,286047000.2,N
1594739715.8,286047000.3,N
1594739735.6,286046999.8,N
1594739755.5,286047000.6,N
1594739775.3,286047002.8,Y
1594739795.1,286047000.3,P
1594739815.9,286047001.6,P
1594739835.7,286046998.1,N
1594739855.6,286046998.4,N
1594739875.4,286046998.9,N
1594739895.2,286047000.4,N
1594739915.1,286047000.4,N
1594739916.0,286047000.4,N
1594739935.8,286047000.6,N
1594739955.6,286046998.2,N
1594739975.5,286047000.7,N
1594739995.3,286047000.0,N
1594740015.2,286047001.8,N
1594740035.9,286047002.1,N
1594740055.7,286047004.4,Y
1594740075.6,286047004.0,P
1594740095.4,286047003.7,N
1594740115.2,286047003.5,N
1594740135.1,286047003.8,N
1594740136.0,286047003.8,N
1594740155.8,286047003.0,N
1594740175.7,286047002.9,N
1594740195.5,286047004.0,Y
1594740215.3,286046998.3,P
1594740235.2,286046998.1,N
1594740255.0,286046998.4,N
1594740255.9,286046998.4,N
1594740275.8,286046999.2,N
1594740295.6,286046998.1,N
1594740315.4,286046996.6,N
1594740335.3,286046997.3,N
1594740355.1,286046997.4,N
1594740356.0,286046997.4,N
1594740375.8,286046994.9,Y
1594740395.7,286046999.3,P
1594740415.5,286046998.9,N
1594740435.4,286046997.0,P
1594740455.2,286046999.1,N
1594740475.0,286046999.6,N
1594740475.9,286046999.6,N
1594740495.8,286046999.3,N
1594740515.6,286047001.1,N
1594740535.4,286046998.1,N
1594740555.3,286047001.1,N
1594740575.1,286047000.8,N
1594740595.9,286046999.8,N
1594740615.7,286047000.1,N
1594740635.5,286046999.9,N
1594740655.4,286047000.9,N
1594740675.2,286047001.0,N
1594740695.0,286047000.1,N
1594740695.9,286047000.1,N
1594740715.8,286047002.7,N
1594740735.6,286047002.8,N
1594740755.5,286047002.5,N
1594740775.3,286047002.1,N
1594740795.1,286047002.1,N
1594740815.9,286047001.9,N
1594740835.7,286047002.6,N
1594740855.5,286047001.6,N
1594740875.4,286047001.3,N
1594740895.2,286047002.8,N
1594740915.0,286047000.0,N
1594740915.9,286047000.0,N
1594740935.8,286046998.1,N
1594740955.6,286047000.5,N
1594740975.5,286047000.4,N
1594740995.3,286047002.4,N
1594741015.1,286047001.6,N
1594741035.9,286047002.8,N
1594741055.7,286047002.3,N
1594741075.5,286047002.8,N
1594741095.4,286047002.8,N
1594741115.2,286047000.7,N
1594741135.1,286046999.9,N
1594741136.0,286046999.9,N
1594741155.8,286047000.3,N
1594741175.6,286047002.8,N
1594741195.5,286047002.8,N
1594741215.3,286047002.4,N
1594741235.2,286047001.6,N
1594741255.9,286047001.7,N
1594741275.7,286047001.5,N
1594741295.6,286047001.5,N
1594741315.4,286047002.2,N
1594741335.2,286047003.8,Y
1594741355.1,286047000.2,P
1594741356.0,286047000.2,N
1594741375.8,286047000.1,N
1594741395.7,286047000.0,N
1594741415.5,286047000.6,N
1594741435.3,286047000.1,N
1594741455.2,286047000.3,N
1594741475.9,286047000.8,N
1594741495.7,286047000.0,N
1594741515.6,286047001.0,N
1594741535.4,286047001.2,N
1594741555.2,286046998.7,N
1594741575.1,286047001.1,N
1594741576.0,286047001.1,N
1594741595.8,286047000.2,N
1594741615.7,286047000.2,N
1594741635.5,286047001.0,N
1594741655.3,286047002.5,Y
1594741675.2,286047000.6,P
1594741695.0,286047000.3,P
1594741695.9,286047000.3,N
1594741715.8,286047000.2,N
1594741735.6,286047000.3,N
1594741755.4,286046999.7,N
1594741775.3,286047000.3,N
1594741795.1,286047000.9,Y
1594741815.8,286046998.5,P
1594741835.7,286047001.1,N
1594741855.5,286047001.2,N
1594741875.4,286047000.6,N
1594741895.2,286047000.5,N
1594741915.0,286047000.9,N
1594741915.9,286047000.9,N
1594741935.8,286047001.2,N
1594741955.6,286046998.1,N
1594741975.4,286046998.1,N
1594741995.3,286047000.7,N
1594742015.1,286047000.5,N
1594742035.9,286047000.5,N
1594742055.7,286047000.4,N
1594742075.5,286047001.0,N
1594742095.4,286047000.9,N
1594742115.2,286046999.7,N
1594742135.0,286047000.6,N
1594742135.9,286047000.6,N
1594742155.8,286047001.1,N
1594742175.6,286046999.9,N
1594742195.4,286047000.5,N
1594742215.3,286047000.9,N
1594742235.1,286047000.2,N
1594742255.9,286047000.0,N
1594742275.7,286047000.5,N
1594742295.5,286047000.5,N
1594742315.4,286047000.3,N
1594742335.2,286047000.4,N
1594742355.0,286047000.5,N
1594742356.0,286047000.5,N
1594742375.8,286047000.8,N
1594742395.6,286047000.5,N
